Terminal Aerodrome Forecast
Issued by NWS

Home | Current Version | Previous Version | Text Only | Print | Product List | Glossary On
Versions: 1 2 3 4 5 6 7 8 9 10 11 12
000
FTAK31 PANC 202338
TAFAVD
TAF
PAVD 202338Z 2100/2124 08011G22KT P6SM SCT120
      TEMPO 2100/2104 VRB06KT
     FM211800 08008KT P6SM VCSH SCT040 OVC060
      AMD LTD TO CLD VIS AND WIND=

USA.gov is the U.S. government's official web portal to all federal, state and local government web resources and services.